Find Shi Jian 6/5A

NORAD ID: 49962 Int'l Des: 2021-122 Owner: CASC Country: CN operational
LEOCIRCULARRETROGRADESSO

Live Position

Loading 3D Globe...

About Shi Jian 6/5A

Description loading...

Upcoming Passes

Passes for default location (London). Set your location on the main map for personalized predictions.

Altitude History

Loading altitude history...

Two-Line Element Set

1 49962U 21122B 26105.69573109 .00001316 00000-0 81092-4 0 9997
2 49962 97.3762 88.4628 0000606 130.3096 229.8187 15.11637704240307
Epoch: Apr 15, 2026 • Age: 21 hours

Current Status

Altitude 534.1 km
Velocity 7.60 km/s
Sub-Earth Point 21.88°N, 39.92°E
Launch Date Dec 10, 2021
Age 4.3 years
Type other

Technical Details

Classification Payload
Mass 350.00 kg
Dry Mass 350.00 kg
Total Mass 350.00 kg
Length 1.00 m
Diameter 1.00 m
Span 4.00 m
Shape Box + 2 Pan
Manufacturer SAST
Bus Type SJ6-5A
Phase Status In Orbit
Owner/State CASC/CN

Most Searched